TimeEST,TemperatureF,Dew PointF,Humidity,Sea Level PressureIn,VisibilityMPH,Wind Direction,Wind SpeedMPH,Gust SpeedMPH,PrecipitationIn,Events,Conditions,WindDirDegrees,DateUTC
12:00 AM,40,37,85,30.09,,NW,10.4,,,,,310,2013-08-10 14:00:00
12:00 AM,41.0,37.4,87,30.06,6.2,NW,10.4,-,N/A,,Unknown,310,2013-08-10 14:00:00
12:30 AM,39.2,35.6,87,30.06,6.2,North,4.6,-,N/A,,Unknown,350,2013-08-10 14:30:00
1:00 AM,40,35,76,30.09,,NNW,5.8,,,,,340,2013-08-10 15:00:00
1:00 AM,39.2,35.6,87,30.06,6.2,NNW,5.8,-,N/A,,Unknown,340,2013-08-10 15:00:00
1:30 AM,42.8,37.4,81,30.04,6.2,NNW,5.8,-,N/A,,Unknown,330,2013-08-10 15:30:00
2:00 AM,39.2,37.4,93,30.04,6.2,North,5.8,-,N/A,,Unknown,360,2013-08-10 16:00:00
2:30 AM,39.2,37.4,93,30.04,6.2,North,4.6,-,N/A,,Unknown,350,2013-08-10 16:30:00
3:00 AM,38,36,89,30.07,,East,3.5,,,,,80,2013-08-10 17:00:00
3:00 AM,37.4,35.6,93,30.04,6.2,East,3.5,-,N/A,,Unknown,80,2013-08-10 17:00:00
3:30 AM,33.8,32.0,93,30.04,6.2,SE,3.5,-,N/A,,Unknown,140,2013-08-10 17:30:00
4:00 AM,33,32,95,30.06,,SE,6.9,,,,,130,2013-08-10 18:00:00
4:00 AM,32.0,32.0,100,30.04,6.2,SE,6.9,-,N/A,,Unknown,130,2013-08-10 18:00:00
4:30 AM,32.0,30.2,93,30.04,6.2,SSE,2.3,-,N/A,,Unknown,150,2013-08-10 18:30:00
5:00 AM,30.2,28.4,93,30.04,6.2,SSE,4.6,-,N/A,,Unknown,150,2013-08-10 19:00:00
5:31 AM,30.2,30.2,100,30.04,6.2,ESE,8.1,-,N/A,,Mostly Cloudy,120,2013-08-10 19:31:00
6:00 AM,32.0,32.0,100,30.04,6.2,SE,6.9,-,N/A,Fog,Patches of Fog,140,2013-08-10 20:00:00
6:30 AM,33.8,33.8,100,30.04,6.2,ESE,5.8,-,N/A,,Mostly Cloudy,120,2013-08-10 20:30:00
7:00 AM,34,33,96,30.09,,SE,6.9,,,,,130,2013-08-10 21:00:00
7:00 AM,33.8,33.8,100,30.06,3.1,SE,6.9,-,N/A,Fog,Patches of Fog,130,2013-08-10 21:00:00
7:18 AM,33.8,32.0,93,30.06,5.0,SE,6.9,-,N/A,Fog,Patches of Fog,130,2013-08-10 21:18:00
7:30 AM,33.8,33.8,100,30.06,1.9,SE,5.8,-,N/A,Fog,Patches of Fog,130,2013-08-10 21:30:00
8:00 AM,35.6,35.6,100,30.06,1.2,ESE,5.8,-,N/A,,Mostly Cloudy,120,2013-08-10 22:00:00
8:10 AM,35.6,35.6,100,30.06,0.6,SE,5.8,-,N/A,Fog,Fog,130,2013-08-10 22:10:00
8:18 AM,37.4,37.4,100,30.06,0.4,SSE,4.6,-,N/A,Fog,Fog,150,2013-08-10 22:18:00
8:30 AM,37.4,37.4,100,30.06,0.6,SSE,4.6,-,N/A,Fog,Fog,160,2013-08-10 22:30:00
8:37 AM,37.4,37.4,100,30.06,1.9,South,4.6,-,N/A,Fog,Patches of Fog,170,2013-08-10 22:37:00
8:49 AM,37.4,37.4,100,30.06,3.7,SSE,4.6,-,N/A,Fog,Patches of Fog,150,2013-08-10 22:49:00
9:00 AM,38,38,100,30.10,,South,3.5,,,,Overcast,170,2013-08-10 23:00:00
9:00 AM,39.2,39.2,100,30.06,3.7,South,3.5,-,N/A,Fog,Patches of Fog,170,2013-08-10 23:00:00
9:14 AM,39.2,39.2,100,30.06,3.7,South,1.2,-,N/A,Fog,Patches of Fog,170,2013-08-10 23:14:00
9:30 AM,39.2,39.2,100,30.06,6.2,NW,4.6,-,N/A,Fog,Patches of Fog,310,2013-08-10 23:30:00
9:49 AM,41.0,39.2,93,30.06,6.2,North,3.5,-,N/A,Fog,Patches of Fog,350,2013-08-10 23:49:00
10:00 AM,42,40,88,30.09,,WNW,4.6,,,,,300,2013-08-11 00:00:00
10:00 AM,42.8,39.2,87,30.06,6.2,WNW,4.6,-,N/A,Fog,Patches of Fog,300,2013-08-11 00:00:00
10:09 AM,41.0,39.2,93,30.04,6.2,WNW,4.6,-,N/A,Fog,Patches of Fog,290,2013-08-11 00:09:00
10:30 AM,44.6,41.0,87,30.04,6.2,WNW,4.6,-,N/A,Fog,Partly Cloudy,300,2013-08-11 00:30:00
11:00 AM,48.2,41.0,76,30.04,6.2,West,5.8,-,N/A,,Partly Cloudy,270,2013-08-11 01:00:00
11:30 AM,53.6,41.0,62,30.01,6.2,West,6.9,-,N/A,,Partly Cloudy,280,2013-08-11 01:30:00
12:00 PM,56,40,44,30.03,,NW,10.4,,,,,320,2013-08-11 02:00:00
12:00 PM,57.2,41.0,55,29.98,6.2,NW,10.4,-,N/A,,Partly Cloudy,320,2013-08-11 02:00:00
12:30 PM,57.2,39.2,51,29.98,6.2,NW,15.0,-,N/A,,Partly Cloudy,310,2013-08-11 02:30:00
1:00 PM,58,37,33,29.99,,NW,13.8,,,,,310,2013-08-11 03:00:00
1:00 PM,59.0,37.4,45,29.95,6.2,NW,13.8,-,N/A,,Partly Cloudy,310,2013-08-11 03:00:00
1:30 PM,59.0,39.2,48,29.95,6.2,NNW,17.3,-,N/A,,Partly Cloudy,330,2013-08-11 03:30:00
2:00 PM,59.0,39.2,48,29.95,6.2,NNW,17.3,-,N/A,,Partly Cloudy,330,2013-08-11 04:00:00
2:30 PM,59.0,39.2,48,29.95,6.2,NW,17.3,-,N/A,,Partly Cloudy,320,2013-08-11 04:30:00
3:00 PM,59,37,32,29.97,,NW,19.6,,,,,320,2013-08-11 05:00:00
3:00 PM,59.0,37.4,45,29.92,6.2,NW,19.6,-,N/A,,Partly Cloudy,320,2013-08-11 05:00:00
3:30 PM,57.2,37.4,48,29.92,6.2,NW,19.6,-,N/A,,Partly Cloudy,320,2013-08-11 05:30:00
4:00 PM,57,38,37,29.96,,NW,18.4,,,,,310,2013-08-11 06:00:00
4:00 PM,57.2,37.4,48,29.92,6.2,NW,18.4,-,N/A,,Partly Cloudy,310,2013-08-11 06:00:00
4:30 PM,55.4,39.2,54,29.92,6.2,WNW,12.7,-,N/A,,Partly Cloudy,300,2013-08-11 06:30:00
5:00 PM,53.6,37.4,54,29.92,6.2,WNW,12.7,-,N/A,,Partly Cloudy,300,2013-08-11 07:00:00
5:30 PM,50.0,37.4,62,29.92,6.2,WNW,9.2,-,N/A,,Partly Cloudy,300,2013-08-11 07:30:00
6:00 PM,49,38,55,29.96,,NW,10.4,,,,,320,2013-08-11 08:00:00
6:00 PM,48.2,37.4,66,29.92,6.2,NW,10.4,-,N/A,,Partly Cloudy,320,2013-08-11 08:00:00
6:30 PM,46.4,39.2,76,29.92,6.2,North,10.4,-,N/A,,Unknown,350,2013-08-11 08:30:00
7:00 PM,45,37,66,29.97,,NNW,9.2,,,,,340,2013-08-11 09:00:00
7:00 PM,44.6,37.4,76,29.92,6.2,NNW,9.2,-,N/A,,Unknown,340,2013-08-11 09:00:00
7:30 PM,46.4,39.2,76,29.92,6.2,NW,9.2,-,N/A,,Unknown,320,2013-08-11 09:30:00
8:00 PM,46.4,39.2,76,29.92,6.2,NW,8.1,-,N/A,,Unknown,320,2013-08-11 10:00:00
8:30 PM,44.6,37.4,76,29.92,6.2,North,5.8,-,N/A,,Unknown,350,2013-08-11 10:30:00
9:00 PM,44,37,70,29.96,,North,2.3,,,,,10,2013-08-11 11:00:00
9:00 PM,44.6,37.4,76,29.92,6.2,North,2.3,-,N/A,,Unknown,10,2013-08-11 11:00:00
9:30 PM,42.8,37.4,81,29.92,6.2,NE,4.6,-,N/A,,Unknown,40,2013-08-11 11:30:00
10:00 PM,41,37,82,29.95,,NNE,4.6,,,,,20,2013-08-11 12:00:00
10:00 PM,41.0,37.4,87,29.92,6.2,NNE,4.6,-,N/A,,Unknown,20,2013-08-11 12:00:00
10:30 PM,39.2,35.6,87,29.89,6.2,NNE,5.8,-,N/A,,Unknown,30,2013-08-11 12:30:00
11:00 PM,42.8,41.0,93,29.89,6.2,NNE,3.5,-,N/A,,Mostly Cloudy,20,2013-08-11 13:00:00
11:30 PM,41.0,39.2,93,29.89,6.2,South,3.5,-,N/A,,Overcast,190,2013-08-11 13:30:00